Tracking 17844 objects as of 28-August-2016
HD Live streaming from Space Station
objects crossing your sky now

USA 139

Track USA 139 now!
USA 139 is classified as:


NORAD ID: 25336
Int'l Code: 1998-029A
Perigee: 35,643.7 km
Apogee: 35,944.8 km
Inclination: 9.1 °
Period: 1,436.1 minutes
Semi major axis: 42165 km
RCS: Unknown
Launch date: May 9, 1998
Source: United States (US)
Launch site: AIR FORCE EASTERN TEST RANGE (AFETR)

ELINT.
Your satellite tracking list
Your tracking list is empty





NASA's NSSDC Master Catalog

Two Line Element Set (TLE):
1 25336U 98029A   16216.20440727 0.00000000  00000-0  00000-0 0    02
2 25336   9.1458 359.3659 0035701 231.2324 128.4574  1.00270000    02
Source of the keplerian elements: McCants

N2YO: 529